TimeCET,TemperatureF,Dew PointF,Humidity,Sea Level PressureIn,VisibilityMPH,Wind Direction,Wind SpeedMPH,Gust SpeedMPH,PrecipitationIn,Events,Conditions,WindDirDegrees,DateUTC
12:00 AM,64.4,53.6,68,29.50,6.2,WSW,17.3,-,N/A,,Partly Cloudy,250,2012-10-31 23:00:00
12:30 AM,60.8,51.8,72,29.50,6.2,WSW,12.7,-,N/A,,Partly Cloudy,250,2012-10-31 23:30:00
1:00 AM,60,49,59,29.53,9,WNW,3.5,,,,Scattered Clouds,290,2012-11-01 00:00:00
1:00 AM,60.8,53.6,77,29.50,6.2,WSW,12.7,-,N/A,,Partly Cloudy,250,2012-11-01 00:00:00
1:30 AM,60.8,53.6,77,29.50,6.2,West,8.1,-,N/A,,Partly Cloudy,260,2012-11-01 00:30:00
2:00 AM,62.6,53.6,72,29.50,6.2,WSW,12.7,-,N/A,,Partly Cloudy,250,2012-11-01 01:00:00
2:30 AM,60.8,53.6,77,29.50,6.2,West,8.1,-,N/A,,Partly Cloudy,260,2012-11-01 01:30:00
3:00 AM,57.2,51.8,82,29.50,6.2,WSW,11.5,-,N/A,,Partly Cloudy,250,2012-11-01 02:00:00
3:30 AM,57.2,53.6,88,29.50,6.2,WSW,15.0,-,N/A,,Partly Cloudy,250,2012-11-01 02:30:00
4:00 AM,62.6,51.8,68,29.50,6.2,WSW,11.5,-,N/A,,Partly Cloudy,250,2012-11-01 03:00:00
4:30 AM,62.6,51.8,68,29.50,6.2,West,11.5,-,N/A,,Partly Cloudy,260,2012-11-01 03:30:00
5:00 AM,57.2,50.0,77,29.50,6.2,West,10.4,-,N/A,,Partly Cloudy,270,2012-11-01 04:00:00
5:30 AM,62.6,51.8,68,29.50,6.2,West,11.5,-,N/A,,Partly Cloudy,260,2012-11-01 04:30:00
6:00 AM,60.8,51.8,72,29.50,6.2,West,11.5,-,N/A,,Partly Cloudy,260,2012-11-01 05:00:00
6:30 AM,60.8,51.8,72,29.53,6.2,West,12.7,-,N/A,,Partly Cloudy,270,2012-11-01 05:30:00
7:00 AM,59,48,57,29.54,16,West,5.8,,,,Partly Cloudy,260,2012-11-01 06:00:00
7:00 AM,60.8,50.0,68,29.53,6.2,West,10.4,-,N/A,,Scattered Clouds,270,2012-11-01 06:00:00
7:30 AM,60.8,50.0,68,29.53,6.2,West,6.9,-,N/A,,Scattered Clouds,280,2012-11-01 06:30:00
8:00 AM,60.8,51.8,72,29.56,6.2,West,5.8,-,N/A,,Partly Cloudy,280,2012-11-01 07:00:00
8:30 AM,62.6,51.8,68,29.56,6.2,West,13.8,-,N/A,,Partly Cloudy,260,2012-11-01 07:30:00
9:00 AM,64.4,51.8,64,29.56,6.2,West,13.8,-,N/A,,Partly Cloudy,260,2012-11-01 08:00:00
9:30 AM,64.4,50.0,59,29.56,6.2,WSW,15.0,-,N/A,,Partly Cloudy,250,2012-11-01 08:30:00
10:00 AM,64.4,50.0,59,29.59,6.2,West,17.3,-,N/A,,Partly Cloudy,260,2012-11-01 09:00:00
10:30 AM,66.2,50.0,56,29.59,6.2,West,17.3,-,N/A,,Partly Cloudy,260,2012-11-01 09:30:00
11:00 AM,66.2,51.8,60,29.59,6.2,WSW,20.7,-,N/A,,Partly Cloudy,250,2012-11-01 10:00:00
11:30 AM,66.2,50.0,56,29.59,6.2,West,18.4,-,N/A,,Partly Cloudy,260,2012-11-01 10:30:00
12:00 PM,66.2,50.0,56,29.59,6.2,WSW,20.7,-,N/A,,Partly Cloudy,250,2012-11-01 11:00:00
12:30 PM,66.2,50.0,56,29.59,6.2,WSW,19.6,-,N/A,,Partly Cloudy,250,2012-11-01 11:30:00
1:00 PM,67,48,39,29.61,19,WSW,17.3,,,,Scattered Clouds,250,2012-11-01 12:00:00
1:00 PM,66.2,51.8,60,29.59,6.2,WSW,19.6,-,N/A,,Partly Cloudy,250,2012-11-01 12:00:00
1:30 PM,66.2,51.8,60,29.59,6.2,WSW,18.4,-,N/A,,Partly Cloudy,250,2012-11-01 12:30:00
2:00 PM,68.0,50.0,52,29.59,6.2,WSW,18.4,-,N/A,,Partly Cloudy,250,2012-11-01 13:00:00
2:30 PM,68.0,51.8,56,29.59,6.2,WSW,17.3,-,N/A,,Partly Cloudy,250,2012-11-01 13:30:00
3:00 PM,66.2,48.2,52,29.59,6.2,WSW,17.3,-,N/A,,Partly Cloudy,250,2012-11-01 14:00:00
3:30 PM,66.2,50.0,56,29.62,6.2,West,17.3,-,N/A,,Partly Cloudy,260,2012-11-01 14:30:00
4:00 PM,66.2,50.0,56,29.62,6.2,West,17.3,-,N/A,,Partly Cloudy,260,2012-11-01 15:00:00
4:30 PM,66.2,48.2,52,29.62,6.2,West,16.1,-,N/A,,Partly Cloudy,260,2012-11-01 15:30:00
5:00 PM,66.2,48.2,52,29.62,6.2,West,12.7,-,N/A,,Partly Cloudy,270,2012-11-01 16:00:00
5:30 PM,66.2,48.2,52,29.65,6.2,West,15.0,-,N/A,,Partly Cloudy,270,2012-11-01 16:30:00
6:00 PM,64.4,50.0,59,29.65,6.2,West,12.7,-,N/A,,Partly Cloudy,270,2012-11-01 17:00:00
6:30 PM,64.4,50.0,59,29.68,6.2,West,10.4,-,N/A,,Partly Cloudy,270,2012-11-01 17:30:00
7:00 PM,62,46,46,29.70,16,West,5.8,,,,Scattered Clouds,260,2012-11-01 18:00:00
7:00 PM,64.4,50.0,59,29.68,6.2,West,9.2,-,N/A,,Partly Cloudy,270,2012-11-01 18:00:00
7:30 PM,62.6,50.0,63,29.71,6.2,WNW,3.5,-,N/A,,Partly Cloudy,300,2012-11-01 18:30:00
8:00 PM,62.6,50.0,63,29.71,6.2,NW,3.5,-,N/A,,Partly Cloudy,310,2012-11-01 19:00:00
8:30 PM,60.8,50.0,68,29.71,6.2,NW,1.2,-,N/A,,Partly Cloudy,320,2012-11-01 19:30:00
9:00 PM,62.6,50.0,63,29.74,-9999.0,Variable,2.3,-,N/A,,Clear,0,2012-11-01 20:00:00
9:30 PM,62.6,50.0,63,29.74,-9999.0,WNW,3.5,-,N/A,,Clear,290,2012-11-01 20:30:00
10:00 PM,60.8,51.8,72,29.77,-9999.0,West,3.5,-,N/A,,Clear,270,2012-11-01 21:00:00
10:30 PM,64.4,53.6,68,29.77,-9999.0,WSW,5.8,-,N/A,,Clear,250,2012-11-01 21:30:00
11:00 PM,62.6,53.6,72,29.74,-9999.0,West,5.8,-,N/A,,Clear,270,2012-11-01 22:00:00
11:30 PM,64.4,53.6,68,29.77,-9999.0,Variable,2.3,-,N/A,,Clear,0,2012-11-01 22:30:00